Timothy Mcallister — WDC8133 — position and weather

sailwx.info

Track history (hours):
 
Tides and Currents Weather Stations Pressure Air Temp Water Temp Dewpoint Dewpoint Depression Visibility Wind Speed Wind Dir Waves Ship Positions

Timothy Mcallister

Owner: McAllister Towing, Staten Island, NY. More information available from US FCC via Universal Licensing System and Coast Guard Vessel Documentation Center.

Last reported at 2018-Aug-16 08:00 UTC. Time now 2018-Aug-16 08:01 UTC.
Position N 39°16' W 076°35'.

Length 34 m; draft 3.8 m.

Type: Towing. MMSI: 367082130.

Date/timePositionNaut miles runAvg speedWind from/ knotsBaromVisibWave heightAir tempDewpointWater temp
2018-Aug-16 08:00N 39°16' W 076°35'0 0.0
2018-Aug-16 07:30N 39°16' W 076°35'0 0.0
2018-Aug-16 07:00N 39°16' W 076°35'0 0.0
2018-Aug-16 06:31N 39°16' W 076°35'0 0.0
2018-Aug-16 06:00N 39°16' W 076°35'0 0.0
2018-Aug-16 05:30N 39°16' W 076°35'0 0.0
2018-Aug-16 05:00N 39°16' W 076°35'1 1.1
2018-Aug-16 04:30N 39°16' W 076°34'0 0.2
2018-Aug-16 04:00N 39°16' W 076°34'2 4.0
2018-Aug-16 03:30N 39°14' W 076°33'1 2.7
2018-Aug-16 03:00N 39°15' W 076°34'1 2.6
2018-Aug-16 02:30N 39°16' W 076°35'0 0.0
2018-Aug-16 02:00N 39°16' W 076°35'0 0.0
2018-Aug-16 01:30N 39°16' W 076°35'0 0.0
2018-Aug-16 01:00N 39°16' W 076°35'0 0.0
2018-Aug-16 00:30N 39°16' W 076°35'0 0.0
2018-Aug-16 00:00N 39°16' W 076°35'0 0.0
2018-Aug-15 23:30N 39°16' W 076°35'0 0.0
2018-Aug-15 23:00N 39°16' W 076°35'2 3.9
2018-Aug-15 22:25N 39°15' W 076°32'0 0.7
2018-Aug-15 22:00N 39°15' W 076°32'2 4.4
2018-Aug-15 21:30N 39°16' W 076°35'0 0.0
2018-Aug-15 21:00N 39°16' W 076°35'0 0.0
2018-Aug-15 20:30N 39°16' W 076°35'0 0.0
2018-Aug-15 20:00N 39°16' W 076°35'0 0.0
2018-Aug-15 19:30N 39°16' W 076°35'0 0.0
2018-Aug-15 19:00N 39°16' W 076°35'0 0.0
2018-Aug-15 18:30N 39°16' W 076°35'0 0.0
2018-Aug-15 18:00N 39°16' W 076°35'2 4.1
2018-Aug-15 17:31N 39°15' W 076°33'1 1.3
2018-Aug-15 17:00N 39°15' W 076°32'3 5.1
2018-Aug-15 16:30N 39°16' W 076°35'0 0.0
2018-Aug-15 16:00N 39°16' W 076°35'0 0.0
2018-Aug-15 15:30N 39°16' W 076°35'0 0.0
2018-Aug-15 15:00N 39°16' W 076°35'0 0.0
2018-Aug-15 14:30N 39°16' W 076°35'0 0.0
2018-Aug-15 14:00N 39°16' W 076°35'0 0.0
2018-Aug-15 13:30N 39°16' W 076°35'0 0.0
2018-Aug-15 13:00N 39°16' W 076°35'1 2.4
2018-Aug-15 12:30N 39°15' W 076°35'1 1.1
2018-Aug-15 12:00N 39°15' W 076°34'3 5.1
2018-Aug-15 11:31N 39°13' W 076°32'4 7.0
2018-Aug-15 11:00N 39°16' W 076°35'0 0.0
2018-Aug-15 10:31N 39°16' W 076°35'0 0.0
2018-Aug-15 10:00N 39°16' W 076°35'0 0.0
2018-Aug-15 09:31N 39°16' W 076°35'0 0.0
2018-Aug-15 09:00N 39°16' W 076°35'0 0.0
2018-Aug-15 08:31N 39°16' W 076°35'0 0.0
2018-Aug-15 08:00N 39°16' W 076°35'0 0.0
2018-Aug-15 07:31N 39°16' W 076°35'0 0.0
2018-Aug-15 07:01N 39°16' W 076°35'0 0.0
2018-Aug-15 06:31N 39°16' W 076°35'0 0.0
2018-Aug-15 06:01N 39°16' W 076°35'0 0.0
2018-Aug-15 05:31N 39°16' W 076°35'0 0.0
2018-Aug-15 05:00N 39°16' W 076°35'0 0.0
2018-Aug-15 04:30N 39°16' W 076°35'0 0.0
2018-Aug-15 04:00N 39°16' W 076°35'0 0.0
2018-Aug-15 03:30N 39°16' W 076°35'0 0.0
2018-Aug-15 03:01N 39°16' W 076°35'0 0.0
2018-Aug-15 02:30N 39°16' W 076°35'0 0.0
2018-Aug-15 02:01N 39°16' W 076°35'0 0.0
2018-Aug-15 01:30N 39°16' W 076°35'0 0.0
2018-Aug-15 01:01N 39°16' W 076°35'0 0.4
2018-Aug-15 00:30N 39°16' W 076°35'1 2.3
2018-Aug-15 00:00N 39°15' W 076°34'1 1.1
2018-Aug-14 23:30N 39°15' W 076°34'2 4.8
2018-Aug-14 23:00N 39°13' W 076°32'0 0.0
2018-Aug-14 22:30N 39°13' W 076°32'2 3.4
2018-Aug-14 22:00N 39°15' W 076°32'0 0.5
2018-Aug-14 21:30N 39°15' W 076°32'0 0.1
2018-Aug-14 21:00N 39°15' W 076°32'2 4.5
2018-Aug-14 20:30N 39°16' W 076°35'0 0.1
2018-Aug-14 20:00N 39°16' W 076°35'0 0.0
2018-Aug-14 19:30N 39°16' W 076°35'0 0.0
2018-Aug-14 19:00N 39°16' W 076°35'0 0.0
2018-Aug-14 18:30N 39°16' W 076°35'0 0.0
2018-Aug-14 18:00N 39°16' W 076°35'0 0.0
2018-Aug-14 17:30N 39°16' W 076°35'0 0.0
2018-Aug-14 17:00N 39°16' W 076°35'0 0.0
2018-Aug-14 16:30N 39°16' W 076°35'0 0.0
2018-Aug-14 16:00N 39°16' W 076°35'0 0.0
2018-Aug-14 15:30N 39°16' W 076°35'0 0.0
2018-Aug-14 15:01N 39°16' W 076°35'0 0.0
2018-Aug-14 14:30N 39°16' W 076°35'0 0.0
2018-Aug-14 14:00N 39°16' W 076°35'3 5.1
2018-Aug-14 13:30N 39°14' W 076°33'1 2.8
2018-Aug-14 13:00N 39°15' W 076°34'1 2.4
2018-Aug-14 12:30N 39°16' W 076°35'0 0.0
2018-Aug-14 12:00N 39°16' W 076°35'0 0.0
2018-Aug-14 11:30N 39°16' W 076°35'1 1.8
2018-Aug-14 11:00N 39°15' W 076°34'2 4.1
2018-Aug-14 10:30N 39°14' W 076°32'0 0.2
2018-Aug-14 10:00N 39°14' W 076°32'0 0.5
2018-Aug-14 09:30N 39°15' W 076°32'1 2.8
2018-Aug-14 09:01N 39°13' W 076°32'2 4.5
2018-Aug-14 08:31N 39°15' W 076°34'2 3.0
2018-Aug-14 08:01N 39°16' W 076°35'0 0.0
2018-Aug-14 07:30N 39°16' W 076°35'0 0.0
2018-Aug-14 07:00N 39°16' W 076°35'0 0.0
2018-Aug-14 06:30N 39°16' W 076°35'0 0.0
2018-Aug-14 06:00N 39°16' W 076°35'0 0.0
2018-Aug-14 05:30N 39°16' W 076°35'0 0.0
2018-Aug-14 05:00N 39°16' W 076°35'0 0.0
2018-Aug-14 04:30N 39°16' W 076°35'0 0.0
2018-Aug-14 04:00N 39°16' W 076°35'0 0.0
2018-Aug-14 03:30N 39°16' W 076°35'0 0.0
2018-Aug-14 03:00N 39°16' W 076°35'0 0.0
2018-Aug-14 02:30N 39°16' W 076°35'0 0.0
2018-Aug-14 02:00N 39°16' W 076°35'0 0.0
2018-Aug-14 01:30N 39°16' W 076°35'0 0.0
2018-Aug-14 01:00N 39°16' W 076°35'0 0.0
2018-Aug-14 00:30N 39°16' W 076°35'0 0.0
2018-Aug-14 00:00N 39°16' W 076°35'0 0.0
2018-Aug-13 23:30N 39°16' W 076°35'0 0.0
2018-Aug-13 23:00N 39°16' W 076°35'0 0.0
2018-Aug-13 22:30N 39°16' W 076°35'0 0.0
2018-Aug-13 22:00N 39°16' W 076°35'0 0.0
2018-Aug-13 21:30N 39°16' W 076°35'0 0.0
2018-Aug-13 21:00N 39°16' W 076°35'0 0.0
2018-Aug-13 20:30N 39°16' W 076°35'0 0.0
2018-Aug-13 20:00N 39°16' W 076°35'0 0.0
2018-Aug-13 19:30N 39°16' W 076°35'0 0.0
2018-Aug-13 19:00N 39°16' W 076°35'0 0.0
2018-Aug-13 18:30N 39°16' W 076°35'0 0.0
2018-Aug-13 18:00N 39°16' W 076°35'0 0.0
2018-Aug-13 17:30N 39°16' W 076°35'0 0.0
2018-Aug-13 17:00N 39°16' W 076°35'0 0.0
2018-Aug-13 16:30N 39°16' W 076°35'0 0.0
2018-Aug-13 16:00N 39°16' W 076°35'0 0.0
2018-Aug-13 15:30N 39°16' W 076°35'0 0.0
2018-Aug-13 15:00N 39°16' W 076°35'0 0.0
2018-Aug-13 14:30N 39°16' W 076°35'0 0.0
2018-Aug-13 14:00N 39°16' W 076°35'0 0.0
2018-Aug-13 13:30N 39°16' W 076°35'0 0.0
2018-Aug-13 13:00N 39°16' W 076°35'0 0.0
2018-Aug-13 12:30N 39°16' W 076°35'0 0.0
2018-Aug-13 12:00N 39°16' W 076°35'0 0.0
2018-Aug-13 11:30N 39°16' W 076°35'0 0.0
2018-Aug-13 11:00N 39°16' W 076°35'0 0.0
2018-Aug-13 10:30N 39°16' W 076°35'0 0.2
2018-Aug-13 09:55N 39°16' W 076°35'0 0.3
2018-Aug-13 09:30N 39°16' W 076°35'1 1.8
2018-Aug-13 09:00N 39°15' W 076°34'2 3.9
2018-Aug-13 08:30N 39°14' W 076°33'1 2.7
2018-Aug-13 08:00N 39°15' W 076°34'0 0.7
2018-Aug-13 07:30N 39°15' W 076°34'0 0.0
2018-Aug-13 07:00N 39°15' W 076°34'0 0.0
2018-Aug-13 06:30N 39°15' W 076°34'0 0.0
2018-Aug-13 06:00N 39°15' W 076°34'0 0.7
2018-Aug-13 05:30N 39°15' W 076°34'1 1.9
2018-Aug-13 05:00N 39°15' W 076°33'1 1.5
2018-Aug-13 04:30N 39°15' W 076°33'1 2.8
2018-Aug-13 04:00N 39°16' W 076°35'0 0.0
2018-Aug-13 03:30N 39°16' W 076°35'0 0.0
2018-Aug-13 03:00N 39°16' W 076°35'0 0.0
2018-Aug-13 02:30N 39°16' W 076°35'0 0.0
2018-Aug-13 02:00N 39°16' W 076°35'0 0.0
2018-Aug-13 01:29N 39°16' W 076°35'0 0.0
2018-Aug-13 01:00N 39°16' W 076°35'0 0.0
2018-Aug-13 00:30N 39°16' W 076°35'0 0.0
2018-Aug-13 00:00N 39°16' W 076°35'0 0.0
2018-Aug-12 23:30N 39°16' W 076°35'0 0.3
2018-Aug-12 23:00N 39°16' W 076°35'0 0.9
2018-Aug-12 22:30N 39°16' W 076°34'0 0.8
2018-Aug-12 22:00N 39°16' W 076°34'1 1.1
2018-Aug-12 21:29N 39°16' W 076°35'0 0.0
2018-Aug-12 21:00N 39°16' W 076°35'0 0.0
2018-Aug-12 20:30N 39°16' W 076°35'0 0.0
2018-Aug-12 20:00N 39°16' W 076°35'0 0.0
2018-Aug-12 19:30N 39°16' W 076°35'0 0.0
2018-Aug-12 19:00N 39°16' W 076°35'0 0.0
2018-Aug-12 18:30N 39°16' W 076°35'0 0.0
2018-Aug-12 18:00N 39°16' W 076°35'0 0.0
2018-Aug-12 17:30N 39°16' W 076°35'0 0.0
2018-Aug-12 17:00N 39°16' W 076°35'0 0.0
2018-Aug-12 16:30N 39°16' W 076°35'0 0.0
2018-Aug-12 16:00N 39°16' W 076°35'0 0.0
2018-Aug-12 15:30N 39°16' W 076°35'0 0.0
2018-Aug-12 15:00N 39°16' W 076°35'2 4.9
2018-Aug-12 14:30N 39°15' W 076°32'1 1.1
2018-Aug-12 14:00N 39°14' W 076°32'1 1.6
2018-Aug-12 13:30N 39°14' W 076°32'2 5.0
2018-Aug-12 13:00N 39°15' W 076°35'0 0.9
2018-Aug-12 12:31N 39°16' W 076°35'2 3.5
2018-Aug-12 12:01N 39°16' W 076°33'0 0.0
2018-Aug-12 11:30N 39°16' W 076°33'0 0.0
2018-Aug-12 11:00N 39°16' W 076°33'0 0.0
2018-Aug-12 10:31N 39°16' W 076°33'1 1.4
2018-Aug-12 09:58N 39°15' W 076°33'0 0.5
2018-Aug-12 09:30N 39°15' W 076°33'2 3.5
2018-Aug-12 09:01N 39°13' W 076°32'3 5.2
2018-Aug-12 08:31N 39°15' W 076°34'0 1.0
2018-Aug-12 08:01N 39°15' W 076°35'1 2.3
2018-Aug-12 07:30N 39°16' W 076°35'0 0.0
2018-Aug-12 06:59N 39°16' W 076°35'0 0.0
2018-Aug-12 06:30N 39°16' W 076°35'0 0.0
2018-Aug-12 06:00N 39°16' W 076°35'0 0.0
2018-Aug-12 05:30N 39°16' W 076°35'0 0.0
2018-Aug-12 05:00N 39°16' W 076°35'0 0.0
2018-Aug-12 04:30N 39°16' W 076°35'0 0.0
2018-Aug-12 04:00N 39°16' W 076°35'0 0.0
2018-Aug-12 03:30N 39°16' W 076°35'0 0.0
2018-Aug-12 03:00N 39°16' W 076°35'0 0.0
2018-Aug-12 02:30N 39°16' W 076°35'0 0.3
2018-Aug-12 02:01N 39°16' W 076°35'0 0.3
2018-Aug-12 01:31N 39°16' W 076°35'0 0.0
2018-Aug-12 01:00N 39°16' W 076°35'0 0.0
2018-Aug-12 00:31N 39°16' W 076°35'0 0.0
2018-Aug-12 00:00N 39°16' W 076°35'0 0.0
2018-Aug-11 23:30N 39°16' W 076°35'0 0.0
2018-Aug-11 23:01N 39°16' W 076°35'0 0.0
2018-Aug-11 22:30N 39°16' W 076°35'0 0.0
2018-Aug-11 22:01N 39°16' W 076°35'0 0.3
2018-Aug-11 21:30N 39°16' W 076°35'1 2.1
2018-Aug-11 21:00N 39°15' W 076°35'0 0.0
2018-Aug-11 20:30N 39°15' W 076°35'4 8.6
2018-Aug-11 20:00N 39°12' W 076°31'2 2.9
2018-Aug-11 19:28N 39°13' W 076°29'1 1.1
2018-Aug-11 19:00N 39°12' W 076°29'0 0.5
2018-Aug-11 18:29N 39°12' W 076°29'0 0.4
2018-Aug-11 17:59N 39°13' W 076°29'2 4.7
2018-Aug-11 17:30N 39°13' W 076°32'4 7.7
2018-Aug-11 17:00N 39°16' W 076°35'0 0.0
2018-Aug-11 16:30N 39°16' W 076°35'0 0.0
2018-Aug-11 16:00N 39°16' W 076°35'0 0.0
2018-Aug-11 15:30N 39°16' W 076°35'0 0.0
2018-Aug-11 15:00N 39°16' W 076°35'0 0.0
2018-Aug-11 14:30N 39°16' W 076°35'0 0.0
2018-Aug-11 14:00N 39°16' W 076°35'0 0.0
2018-Aug-11 13:30N 39°16' W 076°35'0 0.0
2018-Aug-11 13:00N 39°16' W 076°35'0 0.0
2018-Aug-11 12:30N 39°16' W 076°35'0 0.0
2018-Aug-11 12:00N 39°16' W 076°35'0 0.0
2018-Aug-11 11:30N 39°16' W 076°35'1 2.0
2018-Aug-11 11:00N 39°15' W 076°34'1 2.2
2018-Aug-11 10:28N 39°15' W 076°33'0 0.4
2018-Aug-11 10:00N 39°15' W 076°33'0 0.8
2018-Aug-11 09:30N 39°15' W 076°32'0 0.0
2018-Aug-11 09:00N 39°15' W 076°32'0 0.0
2018-Aug-11 08:30N 39°15' W 076°32'0 0.0
2018-Aug-11 08:00N 39°15' W 076°32'1 2.1
2018-Aug-11 07:30N 39°14' W 076°32'1 1.7
2018-Aug-11 07:00N 39°13' W 076°32'0 0.1
2018-Aug-11 06:30N 39°13' W 076°32'0 0.1
2018-Aug-11 05:59N 39°13' W 076°32'0 0.0
2018-Aug-11 05:30N 39°13' W 076°32'0 0.0
2018-Aug-11 05:00N 39°13' W 076°32'3 5.5
2018-Aug-11 04:30N 39°15' W 076°34'0 0.6
2018-Aug-11 04:00N 39°15' W 076°35'2 3.6
2018-Aug-11 03:30N 39°14' W 076°33'1 1.5
2018-Aug-11 03:00N 39°15' W 076°32'2 4.5
2018-Aug-11 02:30N 39°16' W 076°35'0 0.0
2018-Aug-11 02:00N 39°16' W 076°35'0 0.0
2018-Aug-11 01:31N 39°16' W 076°35'0 0.0
2018-Aug-11 01:01N 39°16' W 076°35'0 0.0
2018-Aug-11 00:31N 39°16' W 076°35'0 0.0
2018-Aug-11 00:00N 39°16' W 076°35'0 0.0
2018-Aug-10 23:30N 39°16' W 076°35'0 0.0
2018-Aug-10 23:01N 39°16' W 076°35'0 0.0
2018-Aug-10 22:29N 39°16' W 076°35'0 0.0
2018-Aug-10 22:00N 39°16' W 076°35'0 0.0
2018-Aug-10 21:31N 39°16' W 076°35'0 0.0
2018-Aug-10 21:00N 39°16' W 076°35'0 0.0
2018-Aug-10 20:30N 39°16' W 076°35'0 0.0
2018-Aug-10 20:01N 39°16' W 076°35'0 0.0
2018-Aug-10 19:31N 39°16' W 076°35'2 3.5
2018-Aug-10 19:00N 39°15' W 076°33'1 2.9
2018-Aug-10 18:30N 39°13' W 076°33'1 2.0
2018-Aug-10 18:00N 39°13' W 076°34'0 0.3
2018-Aug-10 17:30N 39°13' W 076°35'2 3.5
2018-Aug-10 17:00N 39°15' W 076°34'1 2.9
2018-Aug-10 16:30N 39°16' W 076°35'0 0.0
2018-Aug-10 16:00N 39°16' W 076°35'0 0.0
2018-Aug-10 15:30N 39°16' W 076°35'0 0.0
2018-Aug-10 15:00N 39°16' W 076°35'0 0.0
2018-Aug-10 14:30N 39°16' W 076°35'0 0.0
2018-Aug-10 14:00N 39°16' W 076°35'0 0.0
2018-Aug-10 13:30N 39°16' W 076°35'0 0.0
2018-Aug-10 13:00N 39°16' W 076°35'0 0.0
2018-Aug-10 12:30N 39°16' W 076°35'0 0.0
2018-Aug-10 12:00N 39°16' W 076°35'0 0.0
2018-Aug-10 11:30N 39°16' W 076°35'0 0.0
2018-Aug-10 11:00N 39°16' W 076°35'0 0.0
2018-Aug-10 10:30N 39°16' W 076°35'0 0.0
2018-Aug-10 10:00N 39°16' W 076°35'0 0.0
2018-Aug-10 09:30N 39°16' W 076°35'0 0.0
2018-Aug-10 09:00N 39°16' W 076°35'0 0.0
2018-Aug-10 08:30N 39°16' W 076°35'0 0.0
2018-Aug-10 08:00N 39°16' W 076°35'0 0.0
2018-Aug-10 07:30N 39°16' W 076°35'0 0.0
2018-Aug-10 07:00N 39°16' W 076°35'0 0.0
2018-Aug-10 06:30N 39°16' W 076°35'0 0.0
2018-Aug-10 06:00N 39°16' W 076°35'0 0.0
2018-Aug-10 05:30N 39°16' W 076°35'0 0.0
2018-Aug-10 05:00N 39°16' W 076°35'0 0.0
2018-Aug-10 04:30N 39°16' W 076°35'3 6.2
2018-Aug-10 04:00N 39°14' W 076°31'0 0.8
2018-Aug-10 03:30N 39°14' W 076°32'1 2.2
2018-Aug-10 03:01N 39°13' W 076°32'3 5.3
2018-Aug-10 02:30N 39°15' W 076°34'1 2.1
2018-Aug-10 02:00N 39°16' W 076°35'0 0.0
2018-Aug-10 01:30N 39°16' W 076°35'0 0.0
2018-Aug-10 01:00N 39°16' W 076°35'0 0.0
2018-Aug-10 00:30N 39°16' W 076°35'1 1.5
2018-Aug-10 00:00N 39°15' W 076°35'1 1.4
2018-Aug-09 23:30N 39°16' W 076°35'1 1.5
2018-Aug-09 23:00N 39°15' W 076°35'1 1.5
2018-Aug-09 22:31N 39°15' W 076°34'1 1.8
2018-Aug-09 22:01N 39°15' W 076°33'1 1.4
2018-Aug-09 21:30N 39°14' W 076°33'1 2.8
2018-Aug-09 21:01N 39°13' W 076°32'1 2.1
2018-Aug-09 20:31N 39°14' W 076°33'2 3.8
2018-Aug-09 20:00N 39°15' W 076°35'0 0.3
2018-Aug-09 19:31N 39°15' W 076°35'0 0.0
2018-Aug-09 19:01N 39°15' W 076°35'2 3.8
2018-Aug-09 18:30N 39°15' W 076°32'1 1.8
2018-Aug-09 18:00N 39°14' W 076°33'1 2.8
2018-Aug-09 17:30N 39°13' W 076°32'4 7.7
2018-Aug-09 17:00N 39°16' W 076°35'0 0.1
2018-Aug-09 16:30N 39°16' W 076°35'0 0.0
2018-Aug-09 16:00N 39°16' W 076°35'0 0.0
2018-Aug-09 15:31N 39°16' W 076°35'0 0.0
2018-Aug-09 15:00N 39°16' W 076°35'0 0.0
2018-Aug-09 14:30N 39°16' W 076°35'0 0.0
2018-Aug-09 14:00N 39°16' W 076°35'0 0.0
2018-Aug-09 13:30N 39°16' W 076°35'0 0.0
2018-Aug-09 13:00N 39°16' W 076°35'0 0.0
2018-Aug-09 12:30N 39°16' W 076°35'0 0.0
2018-Aug-09 12:00N 39°16' W 076°35'0 0.0
2018-Aug-09 11:30N 39°16' W 076°35'0 0.0
2018-Aug-09 11:00N 39°16' W 076°35'0 0.0
2018-Aug-09 10:30N 39°16' W 076°35'0 0.0
2018-Aug-09 10:00N 39°16' W 076°35'0 0.0
2018-Aug-09 09:31N 39°16' W 076°35'0 0.0
2018-Aug-09 09:00N 39°16' W 076°35'0 0.0
2018-Aug-09 08:31N 39°16' W 076°35'0 0.0
2018-Aug-09 08:00N 39°16' W 076°35'1 1.6
2018-Aug-09 07:30N 39°15' W 076°35'0 0.5
2018-Aug-09 07:00N 39°15' W 076°35'3 5.5
2018-Aug-09 06:30N 39°13' W 076°32'1 2.9
2018-Aug-09 06:00N 39°15' W 076°32'1 2.1
2018-Aug-09 05:30N 39°14' W 076°33'2 4.3
2018-Aug-09 05:00N 39°15' W 076°34'1 1.6
2018-Aug-09 04:30N 39°16' W 076°35'0 0.0
2018-Aug-09 04:00N 39°16' W 076°35'0 0.0
2018-Aug-09 03:30N 39°16' W 076°35'0 0.0
2018-Aug-09 03:00N 39°16' W 076°35'0 0.0
2018-Aug-09 02:30N 39°16' W 076°35'0 0.0
2018-Aug-09 02:00N 39°16' W 076°35'0 0.0
2018-Aug-09 01:30N 39°16' W 076°35'0 0.5
2018-Aug-09 01:00N 39°16' W 076°35'3 5.4
2018-Aug-09 00:30N 39°13' W 076°35'0 0.8
2018-Aug-08 23:56N 39°13' W 076°34'2 3.7
2018-Aug-08 23:29N 39°13' W 076°32'1 1.1
2018-Aug-08 23:00N 39°13' W 076°32'0 0.0
2018-Aug-08 22:30N 39°13' W 076°32'0 0.0
2018-Aug-08 22:00N 39°13' W 076°32'1 1.3
2018-Aug-08 21:30N 39°13' W 076°33'1 2.7
2018-Aug-08 21:00N 39°13' W 076°35'2 3.1
2018-Aug-08 20:30N 39°14' W 076°33'2 2.4
2018-Aug-08 19:50N 39°15' W 076°35'1 3.5
2018-Aug-08 19:30N 39°16' W 076°35'0 0.0
2018-Aug-08 19:01N 39°16' W 076°35'0 0.0
2018-Aug-08 18:30N 39°16' W 076°35'0 0.0
2018-Aug-08 18:00N 39°16' W 076°35'0 0.0
2018-Aug-08 17:30N 39°16' W 076°35'0 0.0
2018-Aug-08 17:00N 39°16' W 076°35'0 0.0
2018-Aug-08 16:30N 39°16' W 076°35'0 0.0
2018-Aug-08 16:00N 39°16' W 076°35'0 0.0
2018-Aug-08 15:30N 39°16' W 076°35'0 0.0
2018-Aug-08 15:00N 39°16' W 076°35'0 0.0
2018-Aug-08 14:30N 39°16' W 076°35'0 0.0
2018-Aug-08 14:00N 39°16' W 076°35'0 0.0
2018-Aug-08 13:30N 39°16' W 076°35'0 0.0
2018-Aug-08 13:00N 39°16' W 076°35'0 0.0
2018-Aug-08 12:30N 39°16' W 076°35'0 0.0
2018-Aug-08 12:00N 39°16' W 076°35'0 0.0
2018-Aug-08 11:30N 39°16' W 076°35'0 0.0
2018-Aug-08 11:00N 39°16' W 076°35'0 0.0
2018-Aug-08 10:30N 39°16' W 076°35'0 0.0
2018-Aug-08 10:00N 39°16' W 076°35'0 0.0
2018-Aug-08 09:30N 39°16' W 076°35'0 0.2
2018-Aug-08 09:00N 39°16' W 076°35'5 9.7
2018-Aug-08 08:31N 39°12' W 076°31'2 3.1
2018-Aug-08 08:00N 39°13' W 076°29'1 1.4
2018-Aug-08 07:30N 39°12' W 076°29'1 2.3
2018-Aug-08 07:00N 39°12' W 076°30'5 9.7
2018-Aug-08 06:30N 39°16' W 076°34'1 1.1
2018-Aug-08 06:00N 39°16' W 076°35'0 0.0
2018-Aug-08 05:30N 39°16' W 076°35'0 0.0
2018-Aug-08 05:01N 39°16' W 076°35'0 0.0
2018-Aug-08 04:30N 39°16' W 076°35'0 0.0
2018-Aug-08 04:00N 39°16' W 076°35'0 0.0
2018-Aug-08 03:30N 39°16' W 076°35'0 0.0
2018-Aug-08 03:00N 39°16' W 076°35'0 0.0
2018-Aug-08 02:30N 39°16' W 076°35'0 0.0
2018-Aug-08 02:00N 39°16' W 076°35'0 0.0
2018-Aug-08 01:30N 39°16' W 076°35'0 0.0
2018-Aug-08 01:00N 39°16' W 076°35'0 0.0
2018-Aug-08 00:30N 39°16' W 076°35'0 0.0
2018-Aug-08 00:00N 39°16' W 076°35'0 0.0
2018-Aug-07 23:30N 39°16' W 076°35'0 0.0
2018-Aug-07 23:00N 39°16' W 076°35'0 0.0
2018-Aug-07 22:30N 39°16' W 076°35'0 0.0
2018-Aug-07 22:00N 39°16' W 076°35'0 0.0
2018-Aug-07 21:30N 39°16' W 076°35'0 0.0
2018-Aug-07 21:00N 39°16' W 076°35'0 0.0
2018-Aug-07 20:30N 39°16' W 076°35'0 0.0
2018-Aug-07 20:00N 39°16' W 076°35'0 0.0
2018-Aug-07 19:30N 39°16' W 076°35'0 0.0
2018-Aug-07 19:00N 39°16' W 076°35'0 0.0
2018-Aug-07 18:30N 39°16' W 076°35'0 0.0
2018-Aug-07 18:00N 39°16' W 076°35'0 0.0
2018-Aug-07 17:30N 39°16' W 076°35'0 0.0
2018-Aug-07 17:00N 39°16' W 076°35'0 0.0
2018-Aug-07 16:30N 39°16' W 076°35'0 0.0
2018-Aug-07 16:00N 39°16' W 076°35'0 0.0
2018-Aug-07 15:30N 39°16' W 076°35'0 0.0
2018-Aug-07 15:00N 39°16' W 076°35'0 0.0
2018-Aug-07 14:30N 39°16' W 076°35'0 0.0
2018-Aug-07 14:00N 39°16' W 076°35'0 0.0
2018-Aug-07 13:30N 39°16' W 076°35'0 0.0
2018-Aug-07 13:00N 39°16' W 076°35'0 0.0
2018-Aug-07 12:30N 39°16' W 076°35'0 0.0
2018-Aug-07 12:00N 39°16' W 076°35'0 0.0
2018-Aug-07 11:30N 39°16' W 076°35'0 0.0
2018-Aug-07 11:00N 39°16' W 076°35'0 0.0
2018-Aug-07 10:30N 39°16' W 076°35'0 0.0
2018-Aug-07 10:00N 39°16' W 076°35'0 0.0
2018-Aug-07 09:30N 39°16' W 076°35'0 0.0
2018-Aug-07 09:00N 39°16' W 076°35'0 0.0
2018-Aug-07 08:30N 39°16' W 076°35'0 0.0
2018-Aug-07 08:00N 39°16' W 076°35'0 0.0
2018-Aug-07 07:30N 39°16' W 076°35'0 0.0
2018-Aug-07 07:01N 39°16' W 076°35'0 0.0
2018-Aug-07 06:30N 39°16' W 076°35'4 7.7
2018-Aug-07 06:00N 39°13' W 076°32'2 4.5
2018-Aug-07 05:30N 39°13' W 076°29'0 0.2
2018-Aug-07 05:00N 39°13' W 076°29'1 1.7
2018-Aug-07 04:30N 39°12' W 076°29'2 3.9
2018-Aug-07 04:00N 39°11' W 076°27'3 6.9
2018-Aug-07 03:30N 39°12' W 076°31'5 9.3
2018-Aug-07 03:00N 39°16' W 076°35'0 0.6
2018-Aug-07 02:30N 39°16' W 076°35'0 0.0
2018-Aug-07 02:00N 39°16' W 076°35'0 0.7
2018-Aug-07 01:30N 39°16' W 076°34'0 0.7
2018-Aug-07 01:00N 39°16' W 076°35'0 0.0
2018-Aug-07 00:30N 39°16' W 076°35'0 0.0
2018-Aug-07 00:00N 39°16' W 076°35'0 0.0
2018-Aug-06 23:30N 39°16' W 076°35'0 0.0
2018-Aug-06 23:00N 39°16' W 076°35'0 0.0
2018-Aug-06 22:30N 39°16' W 076°35'0 0.0
2018-Aug-06 22:00N 39°16' W 076°35'0 0.0
2018-Aug-06 21:30N 39°16' W 076°35'0 0.0
2018-Aug-06 21:00N 39°16' W 076°35'0 0.0
2018-Aug-06 20:30N 39°16' W 076°35'0 0.0
2018-Aug-06 20:00N 39°16' W 076°35'0 0.0
2018-Aug-06 19:30N 39°16' W 076°35'0 0.0
2018-Aug-06 19:00N 39°16' W 076°35'0 0.0
2018-Aug-06 18:30N 39°16' W 076°35'0 0.0
2018-Aug-06 18:00N 39°16' W 076°35'3 6.7
2018-Aug-06 17:30N 39°14' W 076°32'1 1.4
2018-Aug-06 17:01N 39°13' W 076°32'1 1.1
2018-Aug-06 16:30N 39°13' W 076°32'0 0.6
2018-Aug-06 16:00N 39°13' W 076°32'4 8.4
2018-Aug-06 15:30N 39°16' W 076°35'0 0.2
2018-Aug-06 15:00N 39°16' W 076°35'0 0.0
2018-Aug-06 14:30N 39°16' W 076°35'0 0.0
2018-Aug-06 14:00N 39°16' W 076°35'0 0.0
2018-Aug-06 13:31N 39°16' W 076°35'0 0.0
2018-Aug-06 13:00N 39°16' W 076°35'0 0.0
2018-Aug-06 12:30N 39°16' W 076°35'0 0.0
2018-Aug-06 12:00N 39°16' W 076°35'0 0.0
2018-Aug-06 11:30N 39°16' W 076°35'0 0.0
2018-Aug-06 11:00N 39°16' W 076°35'0 0.0
2018-Aug-06 10:30N 39°16' W 076°35'0 0.0
2018-Aug-06 10:00N 39°16' W 076°35'0 0.0
2018-Aug-06 09:30N 39°16' W 076°35'0 0.0
2018-Aug-06 09:00N 39°16' W 076°35'0 0.0
2018-Aug-06 08:29N 39°16' W 076°35'3 5.2
2018-Aug-06 08:01N 39°15' W 076°32'  
Track history (hours):
 
Tides and Currents Weather Stations Pressure Air Temp Water Temp Dewpoint Dewpoint Depression Visibility Wind Speed Wind Dir Waves Ship Positions

Timothy Mcallister

Owner: McAllister Towing, Staten Island, NY. More information available from US FCC via Universal Licensing System and Coast Guard Vessel Documentation Center.

Last reported at 2018-Aug-16 08:00 UTC. Time now 2018-Aug-16 08:01 UTC.
Position N 39°16' W 076°35'.

Length 34 m; draft 3.8 m.

Type: Towing. MMSI: 367082130.

Date/timePositionNaut miles runAvg speedWind from/ knotsBaromVisibWave heightAir tempDewpointWater temp
2018-Aug-16 08:00N 39°16' W 076°35'0 0.0
2018-Aug-16 07:30N 39°16' W 076°35'0 0.0
2018-Aug-16 07:00N 39°16' W 076°35'0 0.0
2018-Aug-16 06:31N 39°16' W 076°35'0 0.0
2018-Aug-16 06:00N 39°16' W 076°35'0 0.0
2018-Aug-16 05:30N 39°16' W 076°35'0 0.0
2018-Aug-16 05:00N 39°16' W 076°35'1 1.1
2018-Aug-16 04:30N 39°16' W 076°34'0 0.2
2018-Aug-16 04:00N 39°16' W 076°34'2 4.0
2018-Aug-16 03:30N 39°14' W 076°33'1 2.7
2018-Aug-16 03:00N 39°15' W 076°34'1 2.6
2018-Aug-16 02:30N 39°16' W 076°35'0 0.0
2018-Aug-16 02:00N 39°16' W 076°35'0 0.0
2018-Aug-16 01:30N 39°16' W 076°35'0 0.0
2018-Aug-16 01:00N 39°16' W 076°35'0 0.0
2018-Aug-16 00:30N 39°16' W 076°35'0 0.0
2018-Aug-16 00:00N 39°16' W 076°35'0 0.0
2018-Aug-15 23:30N 39°16' W 076°35'0 0.0
2018-Aug-15 23:00N 39°16' W 076°35'2 3.9
2018-Aug-15 22:25N 39°15' W 076°32'0 0.7
2018-Aug-15 22:00N 39°15' W 076°32'2 4.4
2018-Aug-15 21:30N 39°16' W 076°35'0 0.0
2018-Aug-15 21:00N 39°16' W 076°35'0 0.0
2018-Aug-15 20:30N 39°16' W 076°35'0 0.0
2018-Aug-15 20:00N 39°16' W 076°35'0 0.0
2018-Aug-15 19:30N 39°16' W 076°35'0 0.0
2018-Aug-15 19:00N 39°16' W 076°35'0 0.0
2018-Aug-15 18:30N 39°16' W 076°35'0 0.0
2018-Aug-15 18:00N 39°16' W 076°35'2 4.1
2018-Aug-15 17:31N 39°15' W 076°33'1 1.3
2018-Aug-15 17:00N 39°15' W 076°32'3 5.1
2018-Aug-15 16:30N 39°16' W 076°35'0 0.0
2018-Aug-15 16:00N 39°16' W 076°35'0 0.0
2018-Aug-15 15:30N 39°16' W 076°35'0 0.0
2018-Aug-15 15:00N 39°16' W 076°35'0 0.0
2018-Aug-15 14:30N 39°16' W 076°35'0 0.0
2018-Aug-15 14:00N 39°16' W 076°35'0 0.0
2018-Aug-15 13:30N 39°16' W 076°35'0 0.0
2018-Aug-15 13:00N 39°16' W 076°35'1 2.4
2018-Aug-15 12:30N 39°15' W 076°35'1 1.1
2018-Aug-15 12:00N 39°15' W 076°34'3 5.1
2018-Aug-15 11:31N 39°13' W 076°32'4 7.0
2018-Aug-15 11:00N 39°16' W 076°35'0 0.0
2018-Aug-15 10:31N 39°16' W 076°35'0 0.0
2018-Aug-15 10:00N 39°16' W 076°35'0 0.0
2018-Aug-15 09:31N 39°16' W 076°35'0 0.0
2018-Aug-15 09:00N 39°16' W 076°35'0 0.0
2018-Aug-15 08:31N 39°16' W 076°35'0 0.0
2018-Aug-15 08:00N 39°16' W 076°35'0 0.0
2018-Aug-15 07:31N 39°16' W 076°35'0 0.0
2018-Aug-15 07:01N 39°16' W 076°35'0 0.0
2018-Aug-15 06:31N 39°16' W 076°35'0 0.0
2018-Aug-15 06:01N 39°16' W 076°35'0 0.0
2018-Aug-15 05:31N 39°16' W 076°35'0 0.0
2018-Aug-15 05:00N 39°16' W 076°35'0 0.0
2018-Aug-15 04:30N 39°16' W 076°35'0 0.0
2018-Aug-15 04:00N 39°16' W 076°35'0 0.0
2018-Aug-15 03:30N 39°16' W 076°35'0 0.0
2018-Aug-15 03:01N 39°16' W 076°35'0 0.0
2018-Aug-15 02:30N 39°16' W 076°35'0 0.0
2018-Aug-15 02:01N 39°16' W 076°35'0 0.0
2018-Aug-15 01:30N 39°16' W 076°35'0 0.0
2018-Aug-15 01:01N 39°16' W 076°35'0 0.4
2018-Aug-15 00:30N 39°16' W 076°35'1 2.3
2018-Aug-15 00:00N 39°15' W 076°34'1 1.1
2018-Aug-14 23:30N 39°15' W 076°34'2 4.8
2018-Aug-14 23:00N 39°13' W 076°32'0 0.0
2018-Aug-14 22:30N 39°13' W 076°32'2 3.4
2018-Aug-14 22:00N 39°15' W 076°32'0 0.5
2018-Aug-14 21:30N 39°15' W 076°32'0 0.1
2018-Aug-14 21:00N 39°15' W 076°32'2 4.5
2018-Aug-14 20:30N 39°16' W 076°35'0 0.1
2018-Aug-14 20:00N 39°16' W 076°35'0 0.0
2018-Aug-14 19:30N 39°16' W 076°35'0 0.0
2018-Aug-14 19:00N 39°16' W 076°35'0 0.0
2018-Aug-14 18:30N 39°16' W 076°35'0 0.0
2018-Aug-14 18:00N 39°16' W 076°35'0 0.0
2018-Aug-14 17:30N 39°16' W 076°35'0 0.0
2018-Aug-14 17:00N 39°16' W 076°35'0 0.0
2018-Aug-14 16:30N 39°16' W 076°35'0 0.0
2018-Aug-14 16:00N 39°16' W 076°35'0 0.0
2018-Aug-14 15:30N 39°16' W 076°35'0 0.0
2018-Aug-14 15:01N 39°16' W 076°35'0 0.0
2018-Aug-14 14:30N 39°16' W 076°35'0 0.0
2018-Aug-14 14:00N 39°16' W 076°35'3 5.1
2018-Aug-14 13:30N 39°14' W 076°33'1 2.8
2018-Aug-14 13:00N 39°15' W 076°34'1 2.4
2018-Aug-14 12:30N 39°16' W 076°35'0 0.0
2018-Aug-14 12:00N 39°16' W 076°35'0 0.0
2018-Aug-14 11:30N 39°16' W 076°35'1 1.8
2018-Aug-14 11:00N 39°15' W 076°34'2 4.1
2018-Aug-14 10:30N 39°14' W 076°32'0 0.2
2018-Aug-14 10:00N 39°14' W 076°32'0 0.5
2018-Aug-14 09:30N 39°15' W 076°32'1 2.8
2018-Aug-14 09:01N 39°13' W 076°32'2 4.5
2018-Aug-14 08:31N 39°15' W 076°34'2 3.0
2018-Aug-14 08:01N 39°16' W 076°35'0 0.0
2018-Aug-14 07:30N 39°16' W 076°35'0 0.0
2018-Aug-14 07:00N 39°16' W 076°35'0 0.0
2018-Aug-14 06:30N 39°16' W 076°35'0 0.0
2018-Aug-14 06:00N 39°16' W 076°35'0 0.0
2018-Aug-14 05:30N 39°16' W 076°35'0 0.0
2018-Aug-14 05:00N 39°16' W 076°35'0 0.0
2018-Aug-14 04:30N 39°16' W 076°35'0 0.0
2018-Aug-14 04:00N 39°16' W 076°35'0 0.0
2018-Aug-14 03:30N 39°16' W 076°35'0 0.0
2018-Aug-14 03:00N 39°16' W 076°35'0 0.0
2018-Aug-14 02:30N 39°16' W 076°35'0 0.0
2018-Aug-14 02:00N 39°16' W 076°35'0 0.0
2018-Aug-14 01:30N 39°16' W 076°35'0 0.0
2018-Aug-14 01:00N 39°16' W 076°35'0 0.0
2018-Aug-14 00:30N 39°16' W 076°35'0 0.0
2018-Aug-14 00:00N 39°16' W 076°35'0 0.0
2018-Aug-13 23:30N 39°16' W 076°35'0 0.0
2018-Aug-13 23:00N 39°16' W 076°35'0 0.0
2018-Aug-13 22:30N 39°16' W 076°35'0 0.0
2018-Aug-13 22:00N 39°16' W 076°35'0 0.0
2018-Aug-13 21:30N 39°16' W 076°35'0 0.0
2018-Aug-13 21:00N 39°16' W 076°35'0 0.0
2018-Aug-13 20:30N 39°16' W 076°35'0 0.0
2018-Aug-13 20:00N 39°16' W 076°35'0 0.0
2018-Aug-13 19:30N 39°16' W 076°35'0 0.0
2018-Aug-13 19:00N 39°16' W 076°35'0 0.0
2018-Aug-13 18:30N 39°16' W 076°35'0 0.0
2018-Aug-13 18:00N 39°16' W 076°35'0 0.0
2018-Aug-13 17:30N 39°16' W 076°35'0 0.0
2018-Aug-13 17:00N 39°16' W 076°35'0 0.0
2018-Aug-13 16:30N 39°16' W 076°35'0 0.0
2018-Aug-13 16:00N 39°16' W 076°35'0 0.0
2018-Aug-13 15:30N 39°16' W 076°35'0 0.0
2018-Aug-13 15:00N 39°16' W 076°35'0 0.0
2018-Aug-13 14:30N 39°16' W 076°35'0 0.0
2018-Aug-13 14:00N 39°16' W 076°35'0 0.0
2018-Aug-13 13:30N 39°16' W 076°35'0 0.0
2018-Aug-13 13:00N 39°16' W 076°35'0 0.0
2018-Aug-13 12:30N 39°16' W 076°35'0 0.0
2018-Aug-13 12:00N 39°16' W 076°35'0 0.0
2018-Aug-13 11:30N 39°16' W 076°35'0 0.0
2018-Aug-13 11:00N 39°16' W 076°35'0 0.0
2018-Aug-13 10:30N 39°16' W 076°35'0 0.2
2018-Aug-13 09:55N 39°16' W 076°35'0 0.3
2018-Aug-13 09:30N 39°16' W 076°35'1 1.8
2018-Aug-13 09:00N 39°15' W 076°34'2 3.9
2018-Aug-13 08:30N 39°14' W 076°33'1 2.7
2018-Aug-13 08:00N 39°15' W 076°34'0 0.7
2018-Aug-13 07:30N 39°15' W 076°34'0 0.0
2018-Aug-13 07:00N 39°15' W 076°34'0 0.0
2018-Aug-13 06:30N 39°15' W 076°34'0 0.0
2018-Aug-13 06:00N 39°15' W 076°34'0 0.7
2018-Aug-13 05:30N 39°15' W 076°34'1 1.9
2018-Aug-13 05:00N 39°15' W 076°33'1 1.5
2018-Aug-13 04:30N 39°15' W 076°33'1 2.8
2018-Aug-13 04:00N 39°16' W 076°35'0 0.0
2018-Aug-13 03:30N 39°16' W 076°35'0 0.0
2018-Aug-13 03:00N 39°16' W 076°35'0 0.0
2018-Aug-13 02:30N 39°16' W 076°35'0 0.0
2018-Aug-13 02:00N 39°16' W 076°35'0 0.0
2018-Aug-13 01:29N 39°16' W 076°35'0 0.0
2018-Aug-13 01:00N 39°16' W 076°35'0 0.0
2018-Aug-13 00:30N 39°16' W 076°35'0 0.0
2018-Aug-13 00:00N 39°16' W 076°35'0 0.0
2018-Aug-12 23:30N 39°16' W 076°35'0 0.3
2018-Aug-12 23:00N 39°16' W 076°35'0 0.9
2018-Aug-12 22:30N 39°16' W 076°34'0 0.8
2018-Aug-12 22:00N 39°16' W 076°34'1 1.1
2018-Aug-12 21:29N 39°16' W 076°35'0 0.0
2018-Aug-12 21:00N 39°16' W 076°35'0 0.0
2018-Aug-12 20:30N 39°16' W 076°35'0 0.0
2018-Aug-12 20:00N 39°16' W 076°35'0 0.0
2018-Aug-12 19:30N 39°16' W 076°35'0 0.0
2018-Aug-12 19:00N 39°16' W 076°35'0 0.0
2018-Aug-12 18:30N 39°16' W 076°35'0 0.0
2018-Aug-12 18:00N 39°16' W 076°35'0 0.0
2018-Aug-12 17:30N 39°16' W 076°35'0 0.0
2018-Aug-12 17:00N 39°16' W 076°35'0 0.0
2018-Aug-12 16:30N 39°16' W 076°35'0 0.0
2018-Aug-12 16:00N 39°16' W 076°35'0 0.0
2018-Aug-12 15:30N 39°16' W 076°35'0 0.0
2018-Aug-12 15:00N 39°16' W 076°35'2 4.9
2018-Aug-12 14:30N 39°15' W 076°32'1 1.1
2018-Aug-12 14:00N 39°14' W 076°32'1 1.6
2018-Aug-12 13:30N 39°14' W 076°32'2 5.0
2018-Aug-12 13:00N 39°15' W 076°35'0 0.9
2018-Aug-12 12:31N 39°16' W 076°35'2 3.5
2018-Aug-12 12:01N 39°16' W 076°33'0 0.0
2018-Aug-12 11:30N 39°16' W 076°33'0 0.0
2018-Aug-12 11:00N 39°16' W 076°33'0 0.0
2018-Aug-12 10:31N 39°16' W 076°33'1 1.4
2018-Aug-12 09:58N 39°15' W 076°33'0 0.5
2018-Aug-12 09:30N 39°15' W 076°33'2 3.5
2018-Aug-12 09:01N 39°13' W 076°32'3 5.2
2018-Aug-12 08:31N 39°15' W 076°34'0 1.0
2018-Aug-12 08:01N 39°15' W 076°35'1 2.3
2018-Aug-12 07:30N 39°16' W 076°35'0 0.0
2018-Aug-12 06:59N 39°16' W 076°35'0 0.0
2018-Aug-12 06:30N 39°16' W 076°35'0 0.0
2018-Aug-12 06:00N 39°16' W 076°35'0 0.0
2018-Aug-12 05:30N 39°16' W 076°35'0 0.0
2018-Aug-12 05:00N 39°16' W 076°35'0 0.0
2018-Aug-12 04:30N 39°16' W 076°35'0 0.0
2018-Aug-12 04:00N 39°16' W 076°35'0 0.0
2018-Aug-12 03:30N 39°16' W 076°35'0 0.0
2018-Aug-12 03:00N 39°16' W 076°35'0 0.0
2018-Aug-12 02:30N 39°16' W 076°35'0 0.3
2018-Aug-12 02:01N 39°16' W 076°35'0 0.3
2018-Aug-12 01:31N 39°16' W 076°35'0 0.0
2018-Aug-12 01:00N 39°16' W 076°35'0 0.0
2018-Aug-12 00:31N 39°16' W 076°35'0 0.0
2018-Aug-12 00:00N 39°16' W 076°35'0 0.0
2018-Aug-11 23:30N 39°16' W 076°35'0 0.0
2018-Aug-11 23:01N 39°16' W 076°35'0 0.0
2018-Aug-11 22:30N 39°16' W 076°35'0 0.0
2018-Aug-11 22:01N 39°16' W 076°35'0 0.3
2018-Aug-11 21:30N 39°16' W 076°35'1 2.1
2018-Aug-11 21:00N 39°15' W 076°35'0 0.0
2018-Aug-11 20:30N 39°15' W 076°35'4 8.6
2018-Aug-11 20:00N 39°12' W 076°31'2 2.9
2018-Aug-11 19:28N 39°13' W 076°29'1 1.1
2018-Aug-11 19:00N 39°12' W 076°29'0 0.5
2018-Aug-11 18:29N 39°12' W 076°29'0 0.4
2018-Aug-11 17:59N 39°13' W 076°29'2 4.7
2018-Aug-11 17:30N 39°13' W 076°32'4 7.7
2018-Aug-11 17:00N 39°16' W 076°35'0 0.0
2018-Aug-11 16:30N 39°16' W 076°35'0 0.0
2018-Aug-11 16:00N 39°16' W 076°35'0 0.0
2018-Aug-11 15:30N 39°16' W 076°35'0 0.0
2018-Aug-11 15:00N 39°16' W 076°35'0 0.0
2018-Aug-11 14:30N 39°16' W 076°35'0 0.0
2018-Aug-11 14:00N 39°16' W 076°35'0 0.0
2018-Aug-11 13:30N 39°16' W 076°35'0 0.0
2018-Aug-11 13:00N 39°16' W 076°35'0 0.0
2018-Aug-11 12:30N 39°16' W 076°35'0 0.0
2018-Aug-11 12:00N 39°16' W 076°35'0 0.0
2018-Aug-11 11:30N 39°16' W 076°35'1 2.0
2018-Aug-11 11:00N 39°15' W 076°34'1 2.2
2018-Aug-11 10:28N 39°15' W 076°33'0 0.4
2018-Aug-11 10:00N 39°15' W 076°33'0 0.8
2018-Aug-11 09:30N 39°15' W 076°32'0 0.0
2018-Aug-11 09:00N 39°15' W 076°32'0 0.0
2018-Aug-11 08:30N 39°15' W 076°32'0 0.0
2018-Aug-11 08:00N 39°15' W 076°32'1 2.1
2018-Aug-11 07:30N 39°14' W 076°32'1 1.7
2018-Aug-11 07:00N 39°13' W 076°32'0 0.1
2018-Aug-11 06:30N 39°13' W 076°32'0 0.1
2018-Aug-11 05:59N 39°13' W 076°32'0 0.0
2018-Aug-11 05:30N 39°13' W 076°32'0 0.0
2018-Aug-11 05:00N 39°13' W 076°32'3 5.5
2018-Aug-11 04:30N 39°15' W 076°34'0 0.6
2018-Aug-11 04:00N 39°15' W 076°35'2 3.6
2018-Aug-11 03:30N 39°14' W 076°33'1 1.5
2018-Aug-11 03:00N 39°15' W 076°32'2 4.5
2018-Aug-11 02:30N 39°16' W 076°35'0 0.0
2018-Aug-11 02:00N 39°16' W 076°35'0 0.0
2018-Aug-11 01:31N 39°16' W 076°35'0 0.0
2018-Aug-11 01:01N 39°16' W 076°35'0 0.0
2018-Aug-11 00:31N 39°16' W 076°35'0 0.0
2018-Aug-11 00:00N 39°16' W 076°35'0 0.0
2018-Aug-10 23:30N 39°16' W 076°35'0 0.0
2018-Aug-10 23:01N 39°16' W 076°35'0 0.0
2018-Aug-10 22:29N 39°16' W 076°35'0 0.0
2018-Aug-10 22:00N 39°16' W 076°35'0 0.0
2018-Aug-10 21:31N 39°16' W 076°35'0 0.0
2018-Aug-10 21:00N 39°16' W 076°35'0 0.0
2018-Aug-10 20:30N 39°16' W 076°35'0 0.0
2018-Aug-10 20:01N 39°16' W 076°35'0 0.0
2018-Aug-10 19:31N 39°16' W 076°35'2 3.5
2018-Aug-10 19:00N 39°15' W 076°33'1 2.9
2018-Aug-10 18:30N 39°13' W 076°33'1 2.0
2018-Aug-10 18:00N 39°13' W 076°34'0 0.3
2018-Aug-10 17:30N 39°13' W 076°35'2 3.5
2018-Aug-10 17:00N 39°15' W 076°34'1 2.9
2018-Aug-10 16:30N 39°16' W 076°35'0 0.0
2018-Aug-10 16:00N 39°16' W 076°35'0 0.0
2018-Aug-10 15:30N 39°16' W 076°35'0 0.0
2018-Aug-10 15:00N 39°16' W 076°35'0 0.0
2018-Aug-10 14:30N 39°16' W 076°35'0 0.0
2018-Aug-10 14:00N 39°16' W 076°35'0 0.0
2018-Aug-10 13:30N 39°16' W 076°35'0 0.0
2018-Aug-10 13:00N 39°16' W 076°35'0 0.0
2018-Aug-10 12:30N 39°16' W 076°35'0 0.0
2018-Aug-10 12:00N 39°16' W 076°35'0 0.0
2018-Aug-10 11:30N 39°16' W 076°35'0 0.0
2018-Aug-10 11:00N 39°16' W 076°35'0 0.0
2018-Aug-10 10:30N 39°16' W 076°35'0 0.0
2018-Aug-10 10:00N 39°16' W 076°35'0 0.0
2018-Aug-10 09:30N 39°16' W 076°35'0 0.0
2018-Aug-10 09:00N 39°16' W 076°35'0 0.0
2018-Aug-10 08:30N 39°16' W 076°35'0 0.0
2018-Aug-10 08:00N 39°16' W 076°35'0 0.0
2018-Aug-10 07:30N 39°16' W 076°35'0 0.0
2018-Aug-10 07:00N 39°16' W 076°35'0 0.0
2018-Aug-10 06:30N 39°16' W 076°35'0 0.0
2018-Aug-10 06:00N 39°16' W 076°35'0 0.0
2018-Aug-10 05:30N 39°16' W 076°35'0 0.0
2018-Aug-10 05:00N 39°16' W 076°35'0 0.0
2018-Aug-10 04:30N 39°16' W 076°35'3 6.2
2018-Aug-10 04:00N 39°14' W 076°31'0 0.8
2018-Aug-10 03:30N 39°14' W 076°32'1 2.2
2018-Aug-10 03:01N 39°13' W 076°32'3 5.3
2018-Aug-10 02:30N 39°15' W 076°34'1 2.1
2018-Aug-10 02:00N 39°16' W 076°35'0 0.0
2018-Aug-10 01:30N 39°16' W 076°35'0 0.0
2018-Aug-10 01:00N 39°16' W 076°35'0 0.0
2018-Aug-10 00:30N 39°16' W 076°35'1 1.5
2018-Aug-10 00:00N 39°15' W 076°35'1 1.4
2018-Aug-09 23:30N 39°16' W 076°35'1 1.5
2018-Aug-09 23:00N 39°15' W 076°35'1 1.5
2018-Aug-09 22:31N 39°15' W 076°34'1 1.8
2018-Aug-09 22:01N 39°15' W 076°33'1 1.4
2018-Aug-09 21:30N 39°14' W 076°33'1 2.8
2018-Aug-09 21:01N 39°13' W 076°32'1 2.1
2018-Aug-09 20:31N 39°14' W 076°33'2 3.8
2018-Aug-09 20:00N 39°15' W 076°35'0 0.3
2018-Aug-09 19:31N 39°15' W 076°35'0 0.0
2018-Aug-09 19:01N 39°15' W 076°35'2 3.8
2018-Aug-09 18:30N 39°15' W 076°32'1 1.8
2018-Aug-09 18:00N 39°14' W 076°33'1 2.8
2018-Aug-09 17:30N 39°13' W 076°32'4 7.7
2018-Aug-09 17:00N 39°16' W 076°35'0 0.1
2018-Aug-09 16:30N 39°16' W 076°35'0 0.0
2018-Aug-09 16:00N 39°16' W 076°35'0 0.0
2018-Aug-09 15:31N 39°16' W 076°35'0 0.0
2018-Aug-09 15:00N 39°16' W 076°35'0 0.0
2018-Aug-09 14:30N 39°16' W 076°35'0 0.0
2018-Aug-09 14:00N 39°16' W 076°35'0 0.0
2018-Aug-09 13:30N 39°16' W 076°35'0 0.0
2018-Aug-09 13:00N 39°16' W 076°35'0 0.0
2018-Aug-09 12:30N 39°16' W 076°35'0 0.0
2018-Aug-09 12:00N 39°16' W 076°35'0 0.0
2018-Aug-09 11:30N 39°16' W 076°35'0 0.0
2018-Aug-09 11:00N 39°16' W 076°35'0 0.0
2018-Aug-09 10:30N 39°16' W 076°35'0 0.0
2018-Aug-09 10:00N 39°16' W 076°35'0 0.0
2018-Aug-09 09:31N 39°16' W 076°35'0 0.0
2018-Aug-09 09:00N 39°16' W 076°35'0 0.0
2018-Aug-09 08:31N 39°16' W 076°35'0 0.0
2018-Aug-09 08:00N 39°16' W 076°35'1 1.6
2018-Aug-09 07:30N 39°15' W 076°35'0 0.5
2018-Aug-09 07:00N 39°15' W 076°35'3 5.5
2018-Aug-09 06:30N 39°13' W 076°32'1 2.9
2018-Aug-09 06:00N 39°15' W 076°32'1 2.1
2018-Aug-09 05:30N 39°14' W 076°33'2 4.3
2018-Aug-09 05:00N 39°15' W 076°34'1 1.6
2018-Aug-09 04:30N 39°16' W 076°35'0 0.0
2018-Aug-09 04:00N 39°16' W 076°35'0 0.0
2018-Aug-09 03:30N 39°16' W 076°35'0 0.0
2018-Aug-09 03:00N 39°16' W 076°35'0 0.0
2018-Aug-09 02:30N 39°16' W 076°35'0 0.0
2018-Aug-09 02:00N 39°16' W 076°35'0 0.0
2018-Aug-09 01:30N 39°16' W 076°35'0 0.5
2018-Aug-09 01:00N 39°16' W 076°35'3 5.4
2018-Aug-09 00:30N 39°13' W 076°35'0 0.8
2018-Aug-08 23:56N 39°13' W 076°34'2 3.7
2018-Aug-08 23:29N 39°13' W 076°32'1 1.1
2018-Aug-08 23:00N 39°13' W 076°32'0 0.0
2018-Aug-08 22:30N 39°13' W 076°32'0 0.0
2018-Aug-08 22:00N 39°13' W 076°32'1 1.3
2018-Aug-08 21:30N 39°13' W 076°33'1 2.7
2018-Aug-08 21:00N 39°13' W 076°35'2 3.1
2018-Aug-08 20:30N 39°14' W 076°33'2 2.4
2018-Aug-08 19:50N 39°15' W 076°35'1 3.5
2018-Aug-08 19:30N 39°16' W 076°35'0 0.0
2018-Aug-08 19:01N 39°16' W 076°35'0 0.0
2018-Aug-08 18:30N 39°16' W 076°35'0 0.0
2018-Aug-08 18:00N 39°16' W 076°35'0 0.0
2018-Aug-08 17:30N 39°16' W 076°35'0 0.0
2018-Aug-08 17:00N 39°16' W 076°35'0 0.0
2018-Aug-08 16:30N 39°16' W 076°35'0 0.0
2018-Aug-08 16:00N 39°16' W 076°35'0 0.0
2018-Aug-08 15:30N 39°16' W 076°35'0 0.0
2018-Aug-08 15:00N 39°16' W 076°35'0 0.0
2018-Aug-08 14:30N 39°16' W 076°35'0 0.0
2018-Aug-08 14:00N 39°16' W 076°35'0 0.0
2018-Aug-08 13:30N 39°16' W 076°35'0 0.0
2018-Aug-08 13:00N 39°16' W 076°35'0 0.0
2018-Aug-08 12:30N 39°16' W 076°35'0 0.0
2018-Aug-08 12:00N 39°16' W 076°35'0 0.0
2018-Aug-08 11:30N 39°16' W 076°35'0 0.0
2018-Aug-08 11:00N 39°16' W 076°35'0 0.0
2018-Aug-08 10:30N 39°16' W 076°35'0 0.0
2018-Aug-08 10:00N 39°16' W 076°35'0 0.0
2018-Aug-08 09:30N 39°16' W 076°35'0 0.2
2018-Aug-08 09:00N 39°16' W 076°35'5 9.7
2018-Aug-08 08:31N 39°12' W 076°31'2 3.1
2018-Aug-08 08:00N 39°13' W 076°29'1 1.4
2018-Aug-08 07:30N 39°12' W 076°29'1 2.3
2018-Aug-08 07:00N 39°12' W 076°30'5 9.7
2018-Aug-08 06:30N 39°16' W 076°34'1 1.1
2018-Aug-08 06:00N 39°16' W 076°35'0 0.0
2018-Aug-08 05:30N 39°16' W 076°35'0 0.0
2018-Aug-08 05:01N 39°16' W 076°35'0 0.0
2018-Aug-08 04:30N 39°16' W 076°35'0 0.0
2018-Aug-08 04:00N 39°16' W 076°35'0 0.0
2018-Aug-08 03:30N 39°16' W 076°35'0 0.0
2018-Aug-08 03:00N 39°16' W 076°35'0 0.0
2018-Aug-08 02:30N 39°16' W 076°35'0 0.0
2018-Aug-08 02:00N 39°16' W 076°35'0 0.0
2018-Aug-08 01:30N 39°16' W 076°35'0 0.0
2018-Aug-08 01:00N 39°16' W 076°35'0 0.0
2018-Aug-08 00:30N 39°16' W 076°35'0 0.0
2018-Aug-08 00:00N 39°16' W 076°35'0 0.0
2018-Aug-07 23:30N 39°16' W 076°35'0 0.0
2018-Aug-07 23:00N 39°16' W 076°35'0 0.0
2018-Aug-07 22:30N 39°16' W 076°35'0 0.0
2018-Aug-07 22:00N 39°16' W 076°35'0 0.0
2018-Aug-07 21:30N 39°16' W 076°35'0 0.0
2018-Aug-07 21:00N 39°16' W 076°35'0 0.0
2018-Aug-07 20:30N 39°16' W 076°35'0 0.0
2018-Aug-07 20:00N 39°16' W 076°35'0 0.0
2018-Aug-07 19:30N 39°16' W 076°35'0 0.0
2018-Aug-07 19:00N 39°16' W 076°35'0 0.0
2018-Aug-07 18:30N 39°16' W 076°35'0 0.0
2018-Aug-07 18:00N 39°16' W 076°35'0 0.0
2018-Aug-07 17:30N 39°16' W 076°35'0 0.0
2018-Aug-07 17:00N 39°16' W 076°35'0 0.0
2018-Aug-07 16:30N 39°16' W 076°35'0 0.0
2018-Aug-07 16:00N 39°16' W 076°35'0 0.0
2018-Aug-07 15:30N 39°16' W 076°35'0 0.0
2018-Aug-07 15:00N 39°16' W 076°35'0 0.0
2018-Aug-07 14:30N 39°16' W 076°35'0 0.0
2018-Aug-07 14:00N 39°16' W 076°35'0 0.0
2018-Aug-07 13:30N 39°16' W 076°35'0 0.0
2018-Aug-07 13:00N 39°16' W 076°35'0 0.0
2018-Aug-07 12:30N 39°16' W 076°35'0 0.0
2018-Aug-07 12:00N 39°16' W 076°35'0 0.0
2018-Aug-07 11:30N 39°16' W 076°35'0 0.0
2018-Aug-07 11:00N 39°16' W 076°35'0 0.0
2018-Aug-07 10:30N 39°16' W 076°35'0 0.0
2018-Aug-07 10:00N 39°16' W 076°35'0 0.0
2018-Aug-07 09:30N 39°16' W 076°35'0 0.0
2018-Aug-07 09:00N 39°16' W 076°35'0 0.0
2018-Aug-07 08:30N 39°16' W 076°35'0 0.0
2018-Aug-07 08:00N 39°16' W 076°35'0 0.0
2018-Aug-07 07:30N 39°16' W 076°35'0 0.0
2018-Aug-07 07:01N 39°16' W 076°35'0 0.0
2018-Aug-07 06:30N 39°16' W 076°35'4 7.7
2018-Aug-07 06:00N 39°13' W 076°32'2 4.5
2018-Aug-07 05:30N 39°13' W 076°29'0 0.2
2018-Aug-07 05:00N 39°13' W 076°29'1 1.7
2018-Aug-07 04:30N 39°12' W 076°29'2 3.9
2018-Aug-07 04:00N 39°11' W 076°27'3 6.9
2018-Aug-07 03:30N 39°12' W 076°31'5 9.3
2018-Aug-07 03:00N 39°16' W 076°35'0 0.6
2018-Aug-07 02:30N 39°16' W 076°35'0 0.0
2018-Aug-07 02:00N 39°16' W 076°35'0 0.7
2018-Aug-07 01:30N 39°16' W 076°34'0 0.7
2018-Aug-07 01:00N 39°16' W 076°35'0 0.0
2018-Aug-07 00:30N 39°16' W 076°35'0 0.0
2018-Aug-07 00:00N 39°16' W 076°35'0 0.0
2018-Aug-06 23:30N 39°16' W 076°35'0 0.0
2018-Aug-06 23:00N 39°16' W 076°35'0 0.0
2018-Aug-06 22:30N 39°16' W 076°35'0 0.0
2018-Aug-06 22:00N 39°16' W 076°35'0 0.0
2018-Aug-06 21:30N 39°16' W 076°35'0 0.0
2018-Aug-06 21:00N 39°16' W 076°35'0 0.0
2018-Aug-06 20:30N 39°16' W 076°35'0 0.0
2018-Aug-06 20:00N 39°16' W 076°35'0 0.0
2018-Aug-06 19:30N 39°16' W 076°35'0 0.0
2018-Aug-06 19:00N 39°16' W 076°35'0 0.0
2018-Aug-06 18:30N 39°16' W 076°35'0 0.0
2018-Aug-06 18:00N 39°16' W 076°35'3 6.7
2018-Aug-06 17:30N 39°14' W 076°32'1 1.4
2018-Aug-06 17:01N 39°13' W 076°32'1 1.1
2018-Aug-06 16:30N 39°13' W 076°32'0 0.6
2018-Aug-06 16:00N 39°13' W 076°32'4 8.4
2018-Aug-06 15:30N 39°16' W 076°35'0 0.2
2018-Aug-06 15:00N 39°16' W 076°35'0 0.0
2018-Aug-06 14:30N 39°16' W 076°35'0 0.0
2018-Aug-06 14:00N 39°16' W 076°35'0 0.0
2018-Aug-06 13:31N 39°16' W 076°35'0 0.0
2018-Aug-06 13:00N 39°16' W 076°35'0 0.0
2018-Aug-06 12:30N 39°16' W 076°35'0 0.0
2018-Aug-06 12:00N 39°16' W 076°35'0 0.0
2018-Aug-06 11:30N 39°16' W 076°35'0 0.0
2018-Aug-06 11:00N 39°16' W 076°35'0 0.0
2018-Aug-06 10:30N 39°16' W 076°35'0 0.0
2018-Aug-06 10:00N 39°16' W 076°35'0 0.0
2018-Aug-06 09:30N 39°16' W 076°35'0 0.0
2018-Aug-06 09:00N 39°16' W 076°35'0 0.0
2018-Aug-06 08:29N 39°16' W 076°35'3 5.2
2018-Aug-06 08:01N 39°15' W 076°32'  

Dump ship's entire track history